This is the latest recevied weather packets stored in our database for station/object EA5JUX. If no packets are shown the sender has not sent any weather packets the latest 10 day(s).
| Time | Temp. | Humidity | Pressure | Rain* | Wind** | Luminosity | Snow |
|---|---|---|---|---|---|---|---|
| 1787637101 | 22.22° C | 73% | 1013.7 hPa | 0 mm | - | - | - |
| 1787636802 | 22.78° C | 74% | 1013.4 hPa | 0 mm | - | - | - |
| 1787636502 | 22.78° C | 73% | 1013.2 hPa | 0 mm | - | - | - |
| 1787636202 | 23.33° C | 71% | 1013.1 hPa | 0 mm | - | - | - |
| 1787635902 | 23.33° C | 70% | 1013.2 hPa | 0 mm | - | - | - |
| 1787635602 | 22.78° C | 71% | 1013.1 hPa | 0 mm | - | - | - |
| 1787635302 | 22.78° C | 73% | 1013.4 hPa | 0 mm | - | - | - |
| 1787635002 | 22.78° C | 73% | 1013.2 hPa | 0 mm | - | - | - |
| 1787634703 | 23.33° C | 72% | 1013.2 hPa | 0 mm | - | - | - |
| 1787634411 | 23.89° C | 72% | 1013.2 hPa | 0 mm | - | - | - |
| 1787634101 | 23.33° C | 75% | 1013 hPa | 0 mm | - | - | - |
| 1787633802 | 22.78° C | 77% | 1013.1 hPa | 0 mm | - | - | - |
| 1787633502 | 23.33° C | 78% | 1013.1 hPa | 0 mm | - | - | - |
| 1787633203 | 23.33° C | 79% | 1013.3 hPa | 0 mm | - | - | - |
| 1787632918 | 23.33° C | 79% | 1012.9 hPa | 0 mm | - | - | - |
| 1787632602 | 23.33° C | 79% | 1012.9 hPa | 0 mm | - | - | - |
| 1787632314 | 23.33° C | 79% | 1012.9 hPa | 0 mm | - | - | - |
| 1787632002 | 23.33° C | 78% | 1013 hPa | 0 mm | - | - | - |
| 1787631702 | 23.89° C | 78% | 1013.1 hPa | 0 mm | - | - | - |
| 1787631402 | 23.89° C | 77% | 1013 hPa | 0 mm | - | - | - |
| 1787631102 | 23.89° C | 77% | 1012.7 hPa | 0 mm | - | - | - |
| 1787630813 | 23.89° C | 77% | 1013 hPa | 0 mm | - | - | - |
| 1787630502 | 24.44° C | 77% | 1012.9 hPa | 0 mm | - | - | - |
| 1787630202 | 24.44° C | 77% | 1012.9 hPa | 0 mm | - | - | - |
| 1787629901 | 24.44° C | 78% | 1012.8 hPa | 0 mm | - | - | - |
* Rain latest hour (hover to see other rain measurements)
** Current wind speed in m/s (hover to see current wind gust speed)